Location: Chamberlain Observatory
(39.0028°N, 90.1630°W)
Time: 15:18:11
(UTC-06:00)

Daily predictions for brighter satellites

Satellite Brightness Start Highest point End
(mag) Time Altitude Azimuth Time Altitude Azimuth Time Altitude Azimuth
AQUARIUS 4.5 17:39:34 10° S 17:44:03 74° WSW 17:48:34 10° NNW
H-2A R/B 4.5 17:42:34 10° E 17:44:27 13° ENE 17:46:20 10° NE
Cosmos 2366 rocket 4.0 17:38:27 10° N 17:44:38 62° E 17:50:42 10° SSE
COSMOS 2406 3.7 17:40:00 10° S 17:45:18 40° ESE 17:50:36 10° NE
Cosmos 1455 3.5 17:44:19 10° NNE 17:47:08 19° ENE 17:49:55 10° ESE
Cosmos 1151 Rocket 4.3 17:44:02 10° NNE 17:47:14 20° ENE 17:50:26 10° ESE
TSX-5 4.1 17:46:11 10° SW 17:49:17 54° WNW 17:52:47 10° NNE
Okean 3 Rocket 4.3 17:45:34 10° SSW 17:50:02 60° W 17:54:31 10° N
Cosmos 1346 Rocket 3.3 17:46:40 10° N 17:50:18 35° ENE 17:53:52 10° SE
SKYMED 2 3.8 17:46:08 10° NNE 17:50:22 51° E 17:54:35 10° S
CZ-4 R/B 1.6 17:47:14 10° SSE 17:51:29 85° W 17:55:44 10° NNW
Cosmos 1626 2.1 17:51:00 10° S 17:54:38 60° E 17:58:19 10° NNE
YAOGAN 1 2.5 17:50:23 10° SSE 17:54:41 71° ENE 17:59:00 10° N
Cosmos 1315 Rocket 3.0 17:53:15 10° SSW 17:57:10 72° W 18:01:05 10° N
Cosmos 2221 4.3 17:55:02 10° NNW 17:59:04 37° W 18:03:05 10° SSW
Cosmos 44 Rocket 3.6 17:54:34 10° SW 17:59:13 66° WNW 18:03:57 10° NNE
Ariane Rocket 3.8 17:55:57 10° S 18:00:54 57° W 18:05:55 10° NNW
NOAA 12 4.3 17:56:40 10° SE 18:01:39 48° ENE 18:06:42 10° N
Nadezhda 3 Rocket 4.4 17:57:05 10° SSE 18:02:59 43° E 18:08:56 10° NNE
ERBS 4.1 18:04:36 10° N 18:06:45 16° NNE 18:07:28 15° NE
Cosmos 2151 3.4 18:05:09 10° SSE 18:09:09 41° E 18:13:12 10° NNE
SL-24 R/B - RUBIN 2 4.1 18:08:07 10° NW 18:12:32 61° WSW 18:16:45 10° SSE
Landsat 4 3.6 18:09:29 10° NNE 18:13:14 76° ESE 18:16:56 10° S
Cosmos 1656 Rocket 3.9 18:08:21 10° NNW 18:13:49 73° WSW 18:19:21 10° SSE
EO 1 Del DPAF 3.3 18:10:10 10° NNE 18:13:56 54° E 18:17:42 10° S
ALOS 2.2 18:10:53 10° SSE 18:15:31 76° ENE 18:20:12 10° N
MTI 3.7 18:13:21 10° N 18:16:34 86° W 18:19:45 10° SSW
ERS-2 2.6 18:14:08 10° SE 18:17:33 38° ENE 18:21:00 10° N
Cosmos 332 Rocket 3.8 18:14:55 10° S 18:19:45 67° ESE 18:24:39 10° NNE
Cosmos 909 Rocket 4.2 18:13:18 10° NNW 18:19:53 50° NE 18:25:55 10° SE
Cosmos 1408 Rocket 4.3 18:20:05 10° SSW 18:24:16 53° W 18:28:30 10° N
MONITOR-E 4.4 18:23:26 10° S 18:26:28 67° W 18:29:30 10° NNW
Cosmos 1515 Rocket 3.5 18:23:10 10° N 18:27:28 59° E 18:31:43 10° SSE
Cosmos 1777 Rocket 4.5 18:22:23 10° NNW 18:27:35 64° WSW 18:32:45 10° S
CZ-4C R/B 2.9 18:25:27 10° S 18:29:44 28° ESE 18:31:21 24° E
Tiangong 1 1.9 18:27:43 10° W 18:30:01 34° SSW 18:31:09 21° SSE
Cosmos 1340 3.3 18:28:02 10° NNE 18:36:56 - SSE 18:31:20 31° ENE
Cosmos 1703 3.7 18:30:44 10° SSW 18:34:40 65° W 18:38:38 10° N
SPOT 3 Rocket 3.5 18:31:03 10° SSE 18:36:12 89° W 18:41:24 10° NNW
Cosmos 1500 Rocket 3.5 18:33:44 10° S 18:38:11 77° E 18:42:40 10° N
COSMO-SKYMED 1 3.7 18:34:15 10° N 18:38:23 44° WNW 18:42:29 10° SW
Lacrosse 5 2.4 18:34:31 10° SSW 18:39:16 41° SE 18:40:55 31° E
Cosmos 2239 Rocket 4.4 18:37:39 10° N 18:43:43 60° E 18:49:46 10° SSE
FENGYUN 3A 4.2 18:40:03 10° S 18:45:18 60° W 18:50:37 10° NNW
Meteor 2-15 4.3 18:39:55 10° S 18:46:00 75° E 18:52:05 10° N
USA 81 4.0 18:43:15 10° S 18:48:31 90° SE 18:53:50 10° N
ASTRO E2 4.4 18:46:15 10° WSW 18:49:33 25° S 18:51:07 20° SSE
Cosmos 2208 Rocket 3.9 18:47:39 10° SSW 18:52:55 84° ESE 18:57:10 17° NNE
Cosmos 1743 Rocket 4.3 18:49:24 10° SSW 18:53:39 53° W 18:57:55 10° N
Cosmos 468 Rocket 4.0 18:49:49 10° S 18:54:49 56° ESE 18:56:34 37° NE
Cosmos 1898 Rocket 3.7 18:53:15 10° N 18:58:25 48° ENE 18:59:21 43° E
Cosmos 2228 Rocket 4.0 18:56:55 10° NNW 19:01:23 52° W 19:05:49 10° SSW
Cosmos 371 Rocket 4.1 18:59:32 10° SW 19:04:11 49° WNW 19:08:32 12° N
ISS -2.2 19:02:07 10° SSW 19:03:52 27° S 19:03:52 27° S
Cosmos 1763 Rocket 4.2 19:03:07 10° S 19:06:37 35° SE 19:06:37 35° SE
Cosmos 2082 Rocket 3.0 19:02:59 10° S 19:06:43 32° SE 19:06:43 32° SE
Meteor 2-15 Rocket 4.5 19:07:43 10° S 19:13:51 79° W 19:20:00 10° N
Envisat 4.3 19:16:42 27° N 19:16:42 27° N 19:19:04 10° N
H-2A R/B 4.0 19:14:42 10° S 19:18:18 41° W 19:21:58 10° NNW
Cosmos 2278 4.2 19:14:56 10° NNW 19:19:10 42° NNE 19:19:10 42° NNE
GEOS 3 Rocket 4.0 19:28:14 51° NNE 19:28:14 51° NNE 19:32:38 10° NNW
Cosmos 1833 Rocket 3.2 19:25:07 10° S 19:29:06 45° SSE 19:29:06 45° SSE
Cosmos 2369 4.0 19:30:01 10° NNW 19:34:31 54° N 19:34:31 54° N
Hubble Space Telescope 3.4 19:33:29 10° SSW 19:34:20 13° SSW 19:34:20 13° SSW
Cosmos 1697 Rocket 4.3 19:38:55 10° NNW 19:40:52 21° N 19:40:52 21° N
CZ-4C R/B 3.5 20:13:03 10° WSW 20:16:36 34° W 20:16:36 34° W
Lacrosse 5 3.9 20:17:38 10° WSW 20:20:11 25° W 20:20:11 25° W
